GW2011 Weather Reports


Display with metric or nautical units.
time (UTC)temp
F
wind
direction
speed
MPH
gust
MPH
rain 1hr
in
rain 24hr
in
rain mn
in
humidity
%
barometer
mb
20260508035515 43 0 0.0 0.0 0.00 0.00 0.00 62 1005.6
20260508035020 43 0 0.0 0.0 0.00 0.00 0.00 59 1005.6
20260508034533 43 0 0.0 0.0 0.00 0.00 0.00 56 1005.7
20260508034015 43 0 0.0 0.0 0.00 0.00 0.00 57 1005.8
20260508033518 44 0 0.0 1.0 0.00 0.00 0.00 62 1005.7
20260508033034 44 0 0.0 2.0 0.00 0.00 0.00 66 1005.9
20260508032515 44 0 0.0 2.0 0.00 0.00 0.00 66 1005.9
20260508032017 44 272 0.0 2.0 0.00 0.00 0.00 66 1005.7
20260508031531 45 0 0.0 0.0 0.00 0.00 0.00 53 1005.6
20260508031016 45 0 0.0 1.0 0.00 0.00 0.00 52 1005.7
20260508030515 45 0 0.0 1.0 0.00 0.00 0.00 53 1005.6
20260508030037 46 0 0.0 2.0 0.00 0.00 0.00 55 1005.7
20260508025514 46 0 0.0 2.0 0.00 0.00 0.00 60 1005.8
20260508025019 46 272 0.0 2.0 0.00 0.00 0.00 63 1005.7
20260508024537 47 0 0.0 1.0 0.00 0.00 0.00 54 1005.5
20260508024013 47 0 0.0 1.0 0.00 0.00 0.00 50 1005.6
20260508023517 48 0 0.0 1.0 0.00 0.00 0.00 49 1005.5
20260508023032 48 0 0.0 1.0 0.00 0.00 0.00 53 1005.6
20260508022517 49 0 0.0 1.0 0.00 0.00 0.00 60 1005.6
20260508022019 50 0 0.0 1.0 0.00 0.00 0.00 52 1005.6
20260508021539 50 0 0.0 1.0 0.00 0.00 0.00 45 1005.5
20260508021018 51 0 0.0 1.0 0.00 0.00 0.00 42 1005.5
20260508020513 52 0 0.0 1.0 0.00 0.00 0.00 41 1005.3
20260508020034 52 0 0.0 2.0 0.00 0.00 0.00 39 1005.4
20260508015513 52 0 0.0 2.0 0.00 0.00 0.00 38 1005.4
20260508015014 53 272 0.0 1.0 0.00 0.00 0.00 39 1005.2
20260508014533 53 0 0.0 1.0 0.00 0.00 0.00 36 1005.3
20260508014016 53 0 0.0 2.0 0.00 0.00 0.00 37 1005.4
20260508013517 54 272 0.0 2.0 0.00 0.00 0.00 39 1005.4
20260508013040 54 272 1.0 2.0 0.00 0.00 0.00 39 1005.2
20260508012514 54 272 1.0 2.0 0.00 0.00 0.00 41 1005.2
20260508012014 55 272 0.0 2.0 0.00 0.00 0.00 38 1005.1
20260508011533 55 272 1.0 3.0 0.00 0.00 0.00 37 1005.2
20260508011013 55 273 1.0 3.0 0.00 0.00 0.00 35 1005.2
20260508010515 55 275 2.0 4.0 0.00 0.00 0.00 35 1005.1
20260508010035 56 273 2.0 4.0 0.00 0.00 0.00 35 1005.0
20260508005518 56 270 2.0 4.0 0.00 0.00 0.00 36 1005.0
20260508005017 56 276 2.0 4.0 0.00 0.00 0.00 35 1005.1
20260508004538 56 280 2.0 5.0 0.00 0.00 0.00 34 1005.2
20260508004013 56 269 2.0 5.0 0.00 0.00 0.00 34 1005.1
20260508003515 56 291 1.0 9.0 0.00 0.00 0.00 33 1005.1
20260508003032 56 286 3.0 9.0 0.00 0.00 0.00 34 1005.1
20260508002514 56 257 5.0 9.0 0.00 0.00 0.00 38 1005.1
20260508002013 57 259 4.0 9.0 0.00 0.00 0.00 35 1005.1
20260508001534 57 280 3.0 9.0 0.00 0.00 0.00 32 1005.1
20260508001014 57 278 1.0 4.0 0.00 0.00 0.00 31 1005.2
20260508000515 57 263 1.0 7.0 0.00 0.00 0.00 32 1005.2
20260508000032 57 296 3.0 8.0 0.00 0.00 0.00 30 1005.2
20260507235514 58 279 3.0 11.0 0.00 0.00 0.00 30 1005.3
20260507235015 58 288 4.0 11.0 0.00 0.00 0.00 29 1005.1
20260507234532 58 325 1.0 6.0 0.00 0.00 0.00 29 1005.2
20260507234013 58 296 2.0 6.0 0.00 0.00 0.00 30 1005.2
20260507233516 58 338 2.0 7.0 0.00 0.00 0.00 29 1005.3
20260507233037 58 302 2.0 8.0 0.00 0.00 0.00 30 1005.4
20260507232515 58 284 3.0 8.0 0.00 0.00 0.00 32 1005.4
20260507232017 58 304 1.0 9.0 0.00 0.00 0.00 30 1005.3
20260507231533 58 315 3.0 10.0 0.00 0.00 0.00 31 1005.3
20260507231020 58 279 6.0 10.0 0.00 0.00 0.00 31 1005.3
20260507230515 58 303 4.0 9.0 0.00 0.00 0.00 30 1005.4
20260507230030 58 309 3.0 12.0 0.00 0.00 0.00 29 1005.4
20260507225513 58 292 6.0 15.0 0.00 0.00 0.00 31 1005.4
20260507225014 58 288 1.0 16.0 0.00 0.00 0.00 30 1005.3
20260507224536 58 300 4.0 16.0 0.00 0.00 0.00 30 1005.2
20260507224014 58 311 1.0 11.0 0.00 0.00 0.00 32 1005.3
20260507223514 57 263 6.0 11.0 0.00 0.00 0.00 32 1005.6
20260507223031 58 260 2.0 7.0 0.00 0.00 0.00 34 1005.6
20260507222514 58 300 0.0 7.0 0.00 0.00 0.00 30 1005.5
20260507222015 58 329 3.0 8.0 0.00 0.00 0.00 33 1005.5
20260507221534 57 290 4.0 12.0 0.00 0.00 0.00 32 1005.5
20260507221015 57 327 4.0 14.0 0.00 0.00 0.00 34 1005.8
20260507220512 57 289 7.0 14.0 0.00 0.00 0.00 32 1005.7
20260507220035 57 253 6.0 12.0 0.00 0.00 0.00 33 1005.8
20260507215513 58 269 4.0 9.0 0.00 0.00 0.00 32 1005.9
20260507215013 58 360 2.0 10.0 0.00 0.00 0.00 30 1006.0
20260507214541 58 282 5.0 10.0 0.00 0.00 0.00 33 1006.0
20260507214016 57 292 1.0 14.0 0.00 0.00 0.00 33 1006.0
20260507213516 56 309 5.0 14.0 0.00 0.00 0.00 33 1005.8
20260507213032 56 285 3.0 10.0 0.00 0.00 0.00 32 1005.9
20260507212514 56 264 6.0 13.0 0.00 0.00 0.00 35 1006.0
20260507212016 55 264 5.0 13.0 0.00 0.00 0.00 36 1005.9
20260507211532 55 259 7.0 12.0 0.00 0.00 0.00 39 1006.0
20260507211013 56 253 6.0 11.0 0.00 0.00 0.00 35 1006.1
20260507210513 56 321 4.0 18.0 0.00 0.00 0.00 35 1006.3
20260507210047 55 268 6.0 18.0 0.00 0.00 0.00 43 1006.1
20260507205513 56 271 8.0 16.0 0.00 0.00 0.00 38 1006.1
20260507205018 56 48 3.0 10.0 0.00 0.00 0.00 33 1006.1
20260507204530 56 291 4.0 14.0 0.00 0.00 0.00 33 1006.1
20260507204012 56 281 5.0 14.0 0.00 0.00 0.00 33 1006.3
20260507203516 56 290 1.0 13.0 0.00 0.00 0.00 35 1006.3
20260507203042 56 271 3.0 13.0 0.00 0.00 0.00 31 1006.5
20260507202515 56 287 6.0 10.0 0.00 0.00 0.00 39 1006.6
20260507202013 56 250 2.0 6.0 0.00 0.00 0.00 34 1006.6
20260507201540 56 342 1.0 5.0 0.00 0.00 0.00 33 1006.8
20260507201014 55 224 1.0 9.0 0.00 0.00 0.00 33 1006.9
20260507200516 55 280 4.0 13.0 0.00 0.00 0.00 35 1006.9
20260507200036 54 252 6.0 13.0 0.00 0.00 0.00 36 1007.0
20260507195517 55 230 2.0 8.0 0.00 0.00 0.00 35 1006.8
20260507195014 55 242 3.0 10.0 0.00 0.00 0.00 32 1007.1
20260507194559 55 292 3.0 10.0 0.00 0.00 0.00 32 1007.1
20260507194014 56 290 3.0 8.0 0.00 0.00 0.00 33 1007.1
20260507193514 56 287 2.0 7.0 0.00 0.00 0.00 34 1007.2
20260507193033 55 342 2.0 7.0 0.00 0.00 0.00 34 1007.3
20260507192514 54 252 2.0 9.0 0.00 0.00 0.00 34 1007.4
20260507192014 53 0 3.0 9.0 0.00 0.00 0.00 36 1007.3
20260507191539 53 258 4.0 16.0 0.00 0.00 0.00 34 1007.2
20260507191012 53 259 8.0 16.0 0.00 0.00 0.00 36 1007.2
20260507190514 53 264 6.0 14.0 0.00 0.00 0.00 38 1007.4
20260507190034 53 263 7.0 14.0 0.00 0.00 0.00 34 1007.4
20260507185514 53 250 5.0 14.0 0.00 0.00 0.00 37 1007.2
20260507185017 53 261 6.0 14.0 0.00 0.00 0.00 36 1007.4
20260507184539 53 264 6.0 17.0 0.00 0.00 0.00 37 1007.5
20260507184013 53 274 8.0 17.0 0.00 0.00 0.00 35 1007.5
20260507183514 53 213 7.0 13.0 0.00 0.00 0.00 33 1007.4
20260507183036 53 279 6.0 13.0 0.00 0.00 0.00 33 1007.4
20260507182513 53 279 4.0 10.0 0.00 0.00 0.00 33 1007.7
20260507182013 53 279 3.0 10.0 0.00 0.00 0.00 34 1007.7
20260507181533 53 265 3.0 10.0 0.00 0.00 0.00 33 1007.8
20260507181015 52 273 5.0 10.0 0.00 0.00 0.00 32 1007.9
20260507180514 52 275 4.0 10.0 0.00 0.00 0.00 37 1007.8
20260507180037 52 245 5.0 10.0 0.00 0.00 0.00 34 1007.8
20260507175514 53 235 4.0 11.0 0.00 0.00 0.00 32 1007.8
20260507175014 53 261 3.0 11.0 0.00 0.00 0.00 34 1007.9
20260507174542 54 269 3.0 7.0 0.00 0.00 0.00 33 1008.0
20260507174013 53 352 1.0 6.0 0.00 0.00 0.00 35 1008.0
20260507173516 53 23 1.0 7.0 0.00 0.00 0.00 36 1008.0
20260507173037 52 325 2.0 7.0 0.00 0.00 0.00 38 1008.1
20260507172516 51 290 1.0 10.0 0.00 0.00 0.00 38 1008.1
20260507172013 50 316 2.0 15.0 0.00 0.00 0.00 41 1008.2
20260507171540 50 271 8.0 15.0 0.00 0.00 0.00 39 1008.2
20260507171016 50 188 2.0 9.0 0.00 0.00 0.00 37 1008.3
20260507170515 50 246 4.0 8.0 0.00 0.00 0.00 37 1008.3
20260507170035 50 0 2.0 10.0 0.00 0.00 0.00 36 1008.5
20260507165514 50 244 4.0 10.0 0.00 0.00 0.00 37 1008.5
20260507165015 50 268 2.0 8.0 0.00 0.00 0.00 43 1008.5
20260507164531 50 248 2.0 8.0 0.00 0.00 0.00 37 1008.5
20260507164015 49 264 3.0 8.0 0.00 0.00 0.00 37 1008.6
20260507163517 49 117 3.0 8.0 0.00 0.00 0.00 36 1008.5
20260507163031 49 150 2.0 13.0 0.00 0.00 0.00 36 1008.8
20260507162514 48 257 6.0 13.0 0.00 0.00 0.00 39 1008.8
20260507162014 48 245 3.0 8.0 0.00 0.00 0.00 41 1008.8
20260507161536 48 244 2.0 9.0 0.00 0.00 0.00 39 1008.9
20260507161013 47 167 5.0 9.0 0.00 0.00 0.00 40 1008.9
20260507160517 48 180 4.0 8.0 0.00 0.00 0.00 41 1009.0
20260507160034 48 258 3.0 8.0 0.00 0.00 0.00 40 1008.9
20260507155514 47 231 3.0 7.0 0.00 0.00 0.00 45 1009.0
20260507155015 47 223 3.0 7.0 0.00 0.00 0.00 45 1009.1
20260507154536 47 158 2.0 6.0 0.00 0.00 0.00 40 1008.9
20260507154016 47 207 3.0 6.0 0.00 0.00 0.00 42 1009.1
20260507153515 46 172 2.0 8.0 0.00 0.00 0.00 39 1009.1
20260507153040 46 236 3.0 8.0 0.00 0.00 0.00 41 1009.0
20260507152512 46 257 5.0 8.0 0.00 0.00 0.00 47 1008.8
20260507152017 46 236 1.0 6.0 0.00 0.00 0.00 41 1008.8
20260507151532 46 261 3.0 6.0 0.00 0.00 0.00 45 1008.9
20260507151015 46 211 1.0 6.0 0.00 0.00 0.00 42 1008.9
20260507150515 45 165 2.0 7.0 0.00 0.00 0.00 44 1009.0
20260507150032 45 263 3.0 8.0 0.00 0.00 0.00 45 1008.8
20260507145514 45 229 4.0 8.0 0.00 0.00 0.00 46 1008.9
20260507145014 45 220 2.0 5.0 0.00 0.00 0.00 46 1008.9
20260507144535 45 209 2.0 5.0 0.00 0.00 0.00 46 1009.0
20260507144012 45 210 2.0 5.0 0.00 0.00 0.00 50 1008.9
20260507143513 44 202 1.0 4.0 0.00 0.00 0.00 50 1008.8
20260507143032 44 233 1.0 7.0 0.00 0.00 0.00 48 1009.0
20260507142514 44 242 3.0 7.0 0.00 0.00 0.00 47 1009.0
20260507142014 43 190 2.0 6.0 0.00 0.00 0.00 52 1009.1
20260507141533 43 184 1.0 5.0 0.00 0.00 0.00 55 1009.0
20260507141011 43 185 2.0 5.0 0.00 0.00 0.00 57 1008.9
20260507140516 43 173 2.0 6.0 0.00 0.00 0.00 57 1009.1
20260507140032 42 161 3.0 6.0 0.00 0.00 0.00 59 1009.0
20260507135515 42 191 1.0 6.0 0.00 0.00 0.00 60 1009.2
20260507135016 41 209 3.0 6.0 0.00 0.00 0.00 64 1009.1
20260507134531 41 223 1.0 4.0 0.00 0.00 0.00 67 1009.2
20260507134015 40 243 1.0 4.0 0.00 0.00 0.00 70 1009.0
20260507133513 40 244 2.0 4.0 0.00 0.00 0.00 71 1009.1
20260507133034 39 250 1.0 4.0 0.00 0.00 0.00 74 1008.9
20260507132513 38 0 0.0 2.0 0.00 0.00 0.00 77 1009.0
20260507132011 37 309 0.0 2.0 0.00 0.00 0.00 78 1009.2
20260507131537 36 0 0.0 2.0 0.00 0.00 0.00 79 1009.0
20260507131012 36 0 0.0 1.0 0.00 0.00 0.00 79 1009.0
20260507130516 35 0 0.0 1.0 0.00 0.00 0.00 81 1009.0
20260507130039 34 0 0.0 1.0 0.00 0.00 0.00 82 1009.1
20260507125513 34 0 0.0 2.0 0.00 0.00 0.00 82 1009.2
20260507125012 34 0 0.0 2.0 0.00 0.00 0.00 84 1009.1
20260507124531 33 309 0.0 2.0 0.00 0.00 0.00 85 1009.0
20260507124011 32 0 0.0 2.0 0.00 0.00 0.00 87 1009.1
20260507123515 32 0 0.0 2.0 0.00 0.00 0.00 87 1009.1
20260507123033 32 309 1.0 2.0 0.00 0.00 0.00 88 1009.1
20260507122515 31 0 0.0 1.0 0.00 0.00 0.00 88 1009.2
20260507122014 31 0 0.0 2.0 0.00 0.00 0.00 88 1009.2
20260507121531 31 295 0.0 2.0 0.00 0.00 0.00 89 1009.2
20260507121012 30 0 0.0 2.0 0.00 0.00 0.00 89 1009.1
20260507120512 30 295 0.0 2.0 0.00 0.00 0.00 89 1009.1
20260507120030 30 295 1.0 2.0 0.00 0.00 0.00 89 1009.1
20260507115515 29 0 0.0 2.0 0.00 0.00 0.00 88 1009.2
20260507115018 29 0 0.0 1.0 0.00 0.00 0.00 88 1009.1
20260507114536 29 0 0.0 1.0 0.00 0.00 0.00 87 1009.1
20260507114018 29 295 0.0 1.0 0.00 0.00 0.00 87 1009.1
20260507113514 28 0 0.0 1.0 0.00 0.00 0.00 87 1009.1
20260507113034 28 0 0.0 1.0 0.00 0.00 0.00 86 1009.1
20260507112514 28 0 0.0 0.0 0.00 0.00 0.00 87 1009.1
20260507112013 28 0 0.0 1.0 0.00 0.00 0.00 87 1009.1
20260507111532 28 0 0.0 1.0 0.00 0.00 0.00 87 1009.2
20260507111013 28 0 0.0 1.0 0.00 0.00 0.00 87 1009.1
20260507110513 28 0 0.0 1.0 0.00 0.00 0.00 86 1009.1
20260507110034 28 0 0.0 1.0 0.00 0.00 0.00 86 1009.1
20260507105515 28 0 0.0 0.0 0.00 0.00 0.00 87 1009.1
20260507105015 28 0 0.0 0.0 0.00 0.00 0.00 87 1009.1
20260507104531 28 0 0.0 0.0 0.00 0.00 0.00 87 1009.1
20260507104011 28 0 0.0 1.0 0.00 0.00 0.00 87 1009.2
20260507103514 28 0 0.0 1.0 0.00 0.00 0.00 87 1009.1
20260507103033 28 0 0.0 1.0 0.00 0.00 0.00 87 1009.2
20260507102515 28 0 0.0 1.0 0.00 0.00 0.00 87 1009.2
20260507102015 28 0 0.0 1.0 0.00 0.00 0.00 86 1009.1
20260507101532 28 0 0.0 1.0 0.00 0.00 0.00 86 1009.2
20260507101012 28 0 0.0 1.0 0.00 0.00 0.00 86 1009.2
20260507100513 28 0 0.0 1.0 0.00 0.00 0.00 86 1009.2
20260507100035 28 0 0.0 1.0 0.00 0.00 0.00 85 1009.2
20260507095515 28 0 0.0 1.0 0.00 0.00 0.00 85 1009.3
20260507095014 28 0 0.0 1.0 0.00 0.00 0.00 84 1009.4
20260507094532 28 0 0.0 1.0 0.00 0.00 0.00 84 1009.2
20260507094014 28 0 0.0 1.0 0.00 0.00 0.00 84 1009.2
20260507093519 28 0 0.0 1.0 0.00 0.00 0.00 84 1009.2
20260507093035 28 0 0.0 1.0 0.00 0.00 0.00 84 1009.3
20260507092520 28 0 0.0 2.0 0.00 0.00 0.00 83 1009.3
20260507092017 28 0 1.0 2.0 0.00 0.00 0.00 83 1009.3
20260507091535 28 0 0.0 0.0 0.00 0.00 0.00 83 1009.3
20260507091015 28 0 0.0 0.0 0.00 0.00 0.00 83 1009.3
20260507090517 28 0 0.0 0.0 0.00 0.00 0.00 82 1009.3
20260507090034 28 0 0.0 0.0 0.00 0.00 0.00 82 1009.4
20260507085517 29 0 0.0 1.0 0.00 0.00 0.00 82 1009.2
20260507085016 29 0 0.0 1.0 0.00 0.00 0.00 81 1009.2
20260507084532 29 0 0.0 1.0 0.00 0.00 0.00 82 1009.4
20260507084016 29 0 0.0 1.0 0.00 0.00 0.00 81 1009.4
20260507083520 29 0 0.0 1.0 0.00 0.00 0.00 81 1009.3
20260507083034 29 0 0.0 1.0 0.00 0.00 0.00 82 1009.3
20260507082516 29 0 0.0 1.0 0.00 0.00 0.00 82 1009.3
20260507082014 29 0 0.0 1.0 0.00 0.00 0.00 82 1009.4
20260507081532 29 0 0.0 1.0 0.00 0.00 0.00 81 1009.5
20260507081016 29 295 0.0 1.0 0.00 0.00 0.00 81 1009.4
20260507080515 29 295 0.0 1.0 0.00 0.00 0.00 81 1009.5
20260507080038 29 0 0.0 1.0 0.00 0.00 0.00 81 1009.4
20260507075515 29 0 0.0 1.0 0.00 0.00 0.00 81 1009.4
20260507075015 30 0 0.0 1.0 0.00 0.00 0.00 81 1009.5
20260507074534 30 0 0.0 2.0 0.00 0.00 0.00 82 1009.6
20260507074018 30 0 0.0 2.0 0.00 0.00 0.00 81 1009.5
20260507073515 30 0 0.0 1.0 0.00 0.00 0.00 80 1009.5
20260507073033 30 295 0.0 2.0 0.00 0.00 0.00 80 1009.6
20260507072515 30 0 0.0 2.0 0.00 0.00 0.00 80 1009.8
20260507072017 30 295 0.0 2.0 0.00 0.00 0.00 80 1009.7
20260507071558 30 0 0.0 1.0 0.00 0.00 0.00 81 1009.8
20260507071015 30 295 0.0 2.0 0.00 0.00 0.00 81 1010.0
20260507070516 30 295 0.0 2.0 0.00 0.00 0.00 81 1010.0
20260507070037 30 295 0.0 1.0 0.00 0.00 0.00 80 1010.0
20260507065515 30 0 0.0 1.0 0.00 0.00 0.00 79 1009.9
20260507065018 31 0 0.0 2.0 0.00 0.00 0.00 79 1010.0
20260507064536 31 295 0.0 2.0 0.00 0.00 0.00 78 1010.0
20260507064020 31 0 0.0 1.0 0.00 0.00 0.00 78 1009.9
20260507063516 31 0 0.0 1.0 0.00 0.00 0.00 77 1010.1
20260507063034 31 0 0.0 1.0 0.00 0.00 0.00 76 1010.2
20260507062519 31 295 0.0 2.0 0.00 0.00 0.00 76 1010.3
20260507062016 32 0 0.0 2.0 0.00 0.00 0.00 76 1010.2
20260507061534 32 295 0.0 2.0 0.00 0.00 0.00 76 1010.2
20260507061016 32 0 0.0 2.0 0.00 0.00 0.00 77 1010.2
20260507060515 32 295 0.0 2.0 0.00 0.00 0.00 77 1010.1
20260507060036 32 295 0.0 1.0 0.00 0.00 0.00 77 1010.2
20260507055515 32 0 0.0 1.0 0.00 0.00 0.00 78 1010.3
20260507055015 32 295 0.0 1.0 0.00 0.00 0.00 77 1010.5
20260507054531 32 0 0.0 1.0 0.00 0.00 0.00 76 1010.4
20260507054015 32 0 0.0 1.0 0.00 0.00 0.00 76 1010.5
20260507053515 32 0 0.0 1.0 0.00 0.00 0.00 76 1010.4
20260507053057 32 0 0.0 1.0 0.00 0.00 0.00 75 1010.6
20260507052515 33 0 0.0 1.0 0.00 0.00 0.00 75 1010.6
20260507052015 33 295 0.0 1.0 0.00 0.00 0.00 74 1010.6
20260507051540 33 0 0.0 1.0 0.00 0.00 0.00 73 1010.7
20260507051014 33 0 0.0 1.0 0.00 0.00 0.00 73 1010.8
20260507050515 33 0 0.0 2.0 0.00 0.00 0.00 74 1010.9
20260507050037 34 0 0.0 2.0 0.00 0.00 0.00 74 1010.9
20260507045516 34 0 0.0 0.0 0.00 0.00 0.00 73 1010.7
20260507045017 34 0 0.0 0.0 0.00 0.00 0.00 72 1010.9
20260507044534 34 0 0.0 0.0 0.00 0.00 0.00 72 1011.0
20260507044016 34 0 0.0 1.0 0.00 0.00 0.00 71 1011.0
20260507043514 34 0 0.0 1.0 0.00 0.00 0.00 71 1010.9
20260507043037 35 0 0.0 1.0 0.00 0.00 0.00 70 1010.9
20260507042516 35 0 0.0 1.0 0.00 0.00 0.00 70 1010.9
20260507042016 35 0 0.0 1.0 0.00 0.00 0.00 69 1011.0
20260507041534 36 0 0.0 1.0 0.00 0.00 0.00 68 1011.1
20260507041015 36 0 0.0 1.0 0.00 0.00 0.00 68 1011.0
20260507040514 36 0 0.0 1.0 0.00 0.00 0.00 67 1011.1
20260507040034 36 0 0.0 1.0 0.00 0.00 0.00 66 1011.2